FENGYUN 1C DEB

Satellite information

Favourite Embed

Satellite Type and Status

DEBRISIN ORBIT

Key statistics

Satellite FENGYUN 1C DEB at a glance.

Uptime

9500

Days in orbit

Revolutions

≈ 14.1

Per day

Orbit

SSO

Sun Synchronous Orbit

Inclination

98.7

Latest

Satellite identification and parameters

Extended collection of information and parameters for FENGYUN 1C DEB.

Object identification

Identified? True

Debris? True

Object name: FENGYUN 1C DEB

International designator: 1999-025AAL

Object number (NORAD): 30325

Object ID (CCSDS): 30325

Country: PEOPLES REPUBLIC OF CHINA (PRC)

Current information (Y/N): Y

RCS size: SMALL

Orbital parameters

Period: 102.198 minutes

Inclination: 98.7472 deg

SMA: 7240.854 km

Apoapsis: 875.08 km

Periapsis: 850.358 km

RAAN: 158.2509 deg

Eccentricy: 0.0017071

Argument of periapsis: 137.1181 deg

Mean anomaly: 223.1323 deg

Mean motion: 14.09022932 rev/day

Mean motion (dot): 0.00000018 rev/day2

B* drag term: 0.000034808 1/REarth

Two-line elements (TLE)

Creation date: May 12, 2025, 7:41 p.m.

Reference frame: TEME

Reference center: EARTH

Epoch: May 12, 2025, 12:45 p.m. UTC

TLE line 0: 0 FENGYUN 1C DEB

TLE line 1: 1 30325U 99025AAL 25132.53178461 .00000018 00000-0 34808-4 0 9992

TLE line 2: 2 30325 98.7472 158.2509 0017071 137.1181 223.1323 14.09022932939997

Live tracking on map

Real-time ground track for satellite FENGYUN 1C DEB.

In-orbit conjunctions

There are no conjunctions computed for FENGYUN 1C DEB, at the moment. Check back to stay up to date, as we update our databases every day.

Go to all conjunctions

Associated space launch

Chinese polar orbiting meteorological satellite

FENGYUN 1C DEB was lifted into orbit during the mission ‘Long March 4B | Feng Yun 1C’, on board a Long March 4B space rocket.

The launch took place on May 10, 1999, 1:33 a.m. from Launch Complex 7.

For more information about the launch, click the button.

Launch to space Long March 4B | Feng Yun 1C
Long March 4B | Feng Yun 1C

Agency: N/A

Status: Launch Successful

Launch date: May 10, 1999, 1:33 a.m. UTC

Rocket: Long March 4B

Launch pad: Launch Complex 7

Location: Taiyuan Satellite Launch Center, People's Republic of China

...

Latest news about this satellite

There are no fresh news available about this satellite. Check back as we update our databases every day.


Newsletter sign-up

Weekly statistics, charts and insights to help you stay on top of the space industry.